Flag for U.S.A. Weather past 2 weeks in Wake Island, Wake Island, U.S.A.

Now
84 °F

Clear.


Feels Like: 94 °F
Forecast: 84 / 90 °F
Wind: 7 mph from Northeast

Location: Wake Island Airfld

Current Time: Sep 2, 2015 at 4:11:28 AM

Latest Report: Sep 2, 2015 at 2:58 AM


Visibility: N/A

Pressure: 29.87 "Hg

Humidity: 80%

Dew point: 77 °F

Location of Wake IslandLocation

Historic Weather in Wake Island — Graph

°F

Wake Island temperature yesterday

Maximum temperature yesterday: 89 °F (at 12:58 PM)
Minimum temperature yesterday: 83 °F (at 5:58 AM)
Average temperature yesterday: 86 °F

Past Weeks' High & Low Weather Summary

 TemperatureHumidityPressure
High90 °F (Aug 29, 12:58 PM)94% (Aug 30, 8:03 AM)29.96 "Hg (Aug 30, 8:03 AM)
Low80 °F (Aug 21, 4:58 AM)63% (Aug 22, 4:58 PM)29.66 "Hg (Aug 27, 4:58 PM)
Average85 °F78%29.81 "Hg
* Reported Aug 18 2:58 AM — Sep 2 2:58 AM, Wake Island, Weather by CustomWeather, © 2015

Note: Actual official high and low records may vary slightly from our data, if they occured in-between our weather recording intervals... More about our weather records

Advertising

Wake Island weather history for previous 24 hours

 ConditionsComfort  
Time TempWeatherWind HumidityBarometerVisibility
2:58 AM
Wed, Sep 2
84 °FClear.7 mph80%29.87 "HgN/A
1:58 AM84 °FClear.8 mph80%29.88 "HgN/A
12:58 AM85 °FClear.8 mph79%29.89 "HgN/A
11:58 PM
Tue, Sep 1
85 °FClear.9 mph79%29.90 "HgN/A
10:58 PM85 °FPassing clouds.12 mph77%29.91 "HgN/A
9:58 PM85 °FPassing clouds.9 mph76%29.90 "HgN/A
8:58 PM86 °FClear.10 mph75%29.88 "HgN/A
7:58 PM86 °FSunny.9 mph73%29.87 "HgN/A
6:58 PM87 °FSunny.10 mph70%29.85 "HgN/A
5:58 PM88 °FSunny.10 mph72%29.83 "HgN/A
4:58 PM88 °FSunny.10 mph70%29.82 "HgN/A
2:58 PM89 °FPassing clouds.10 mph68%29.83 "HgN/A
1:58 PM88 °FPassing clouds.9 mph69%29.85 "HgN/A
12:58 PM89 °FSunny.8 mph68%29.85 "HgN/A
11:58 AM89 °FSunny.10 mph67%29.87 "HgN/A
10:58 AM89 °FSunny.9 mph72%29.88 "HgN/A
8:58 AM87 °FPassing clouds.9 mph77%29.86 "HgN/A
7:58 AM86 °FPassing clouds.10 mph79%29.84 "HgN/A
6:58 AM84 °FPassing clouds.10 mph83%29.83 "HgN/A
5:58 AM83 °FClear.8 mph83%29.83 "HgN/A
4:58 AM84 °FClear.9 mph80%29.83 "HgN/A
Weather by CustomWeather, © 2015

See weather overviewHow to use our weather pages